Time,TemperatureF,DewpointF,PressureIn,WindDirection,WindDirectionDegrees,WindSpeedMPH,WindSpeedGustMPH,Humidity,HourlyPrecipIn,Conditions,Clouds,dailyrainin,SoftwareType,DateUTC
2013-10-01 00:01:00,61.9,56.0,30.06,SW,228,0.0,0.0,81,0.00,NA,NA,0.00,WeatherLink_script,2013-10-01 04:01:00,
2013-10-01 00:02:00,61.9,56.0,30.06,SW,228,0.0,0.0,81,0.00,NA,NA,0.00,WeatherLink_script,2013-10-01 04:02:00,
2013-10-01 00:03:00,61.9,56.0,30.06,SW,228,0.0,0.0,81,0.00,NA,NA,0.00,WeatherLink_script,2013-10-01 04:03:00,
2013-10-01 00:07:00,61.9,56.0,30.06,SW,228,0.0,0.0,81,0.00,NA,NA,0.00,WeatherLink_script,2013-10-01 04:07:00,
2013-10-01 00:12:00,61.9,56.0,30.06,SW,228,0.0,0.0,81,0.00,NA,NA,0.00,WeatherLink_script,2013-10-01 04:12:00,
2013-10-01 00:17:00,61.9,56.3,30.06,SW,228,0.0,0.0,82,0.00,NA,NA,0.00,WeatherLink_script,2013-10-01 04:17:00,
2013-10-01 00:22:00,61.9,56.3,30.06,SW,228,0.2,1.0,82,0.00,NA,NA,0.00,WeatherLink_script,2013-10-01 04:22:00,
2013-10-01 00:27:00,61.8,56.2,30.06,SW,228,0.6,1.0,82,0.00,NA,NA,0.00,WeatherLink_script,2013-10-01 04:27:00,
2013-10-01 00:32:00,61.7,56.2,30.05,SW,228,0.6,2.0,82,0.00,NA,NA,0.00,WeatherLink_script,2013-10-01 04:32:00,
2013-10-01 00:37:00,61.7,56.5,30.06,SW,228,0.4,2.0,83,0.00,NA,NA,0.00,WeatherLink_script,2013-10-01 04:37:00,
2013-10-01 00:42:00,61.7,56.5,30.05,SW,228,0.4,2.0,83,0.00,NA,NA,0.00,WeatherLink_script,2013-10-01 04:42:00,
2013-10-01 00:47:00,61.7,56.1,30.05,SW,228,0.5,2.0,82,0.00,NA,NA,0.00,WeatherLink_script,2013-10-01 04:47:00,
2013-10-01 00:52:00,61.9,56.0,30.06,SW,228,0.2,1.0,81,0.00,NA,NA,0.00,WeatherLink_script,2013-10-01 04:52:00,
2013-10-01 00:57:00,61.9,56.0,30.05,SW,228,0.4,2.0,81,0.00,NA,NA,0.00,WeatherLink_script,2013-10-01 04:57:00,
2013-10-01 01:02:00,62.0,55.8,30.06,SW,228,0.4,1.0,80,0.00,NA,NA,0.00,WeatherLink_script,2013-10-01 05:02:00,
2013-10-01 01:08:00,62.1,55.8,30.06,SW,228,0.0,0.0,80,0.00,NA,NA,0.00,WeatherLink_script,2013-10-01 05:08:00,
2013-10-01 01:13:00,62.2,56.0,30.06,SW,228,0.0,0.0,80,0.00,NA,NA,0.00,WeatherLink_script,2013-10-01 05:13:00,
2013-10-01 01:18:00,62.2,56.0,30.06,SW,228,0.0,0.0,80,0.00,NA,NA,0.00,WeatherLink_script,2013-10-01 05:18:00,
2013-10-01 01:23:00,62.2,56.0,30.06,SW,228,0.0,0.0,80,0.00,NA,NA,0.00,WeatherLink_script,2013-10-01 05:23:00,
2013-10-01 01:28:00,62.2,56.0,30.06,SW,228,0.0,0.0,80,0.00,NA,NA,0.00,WeatherLink_script,2013-10-01 05:28:00,
2013-10-01 01:34:00,62.2,56.0,30.06,SW,228,0.0,0.0,80,0.00,NA,NA,0.00,WeatherLink_script,2013-10-01 05:34:00,
2013-10-01 01:39:00,62.2,56.3,30.06,SW,228,0.0,0.0,81,0.00,NA,NA,0.00,WeatherLink_script,2013-10-01 05:39:00,
2013-10-01 01:44:00,62.2,56.3,30.06,SW,228,0.0,0.0,81,0.00,NA,NA,0.00,WeatherLink_script,2013-10-01 05:44:00,
2013-10-01 01:49:00,62.0,56.1,30.06,SW,228,0.0,0.0,81,0.00,NA,NA,0.00,WeatherLink_script,2013-10-01 05:49:00,
2013-10-01 01:54:00,62.0,56.4,30.06,SW,228,0.0,0.0,82,0.00,NA,NA,0.00,WeatherLink_script,2013-10-01 05:54:00,
2013-10-01 01:59:00,62.0,56.8,30.06,SW,228,0.0,0.0,83,0.00,NA,NA,0.00,WeatherLink_script,2013-10-01 05:59:00,
2013-10-01 02:04:00,61.9,56.7,30.06,SW,228,0.1,1.0,83,0.00,NA,NA,0.00,WeatherLink_script,2013-10-01 06:04:00,
2013-10-01 02:09:00,61.7,56.5,30.06,SW,228,0.0,0.0,83,0.00,NA,NA,0.00,WeatherLink_script,2013-10-01 06:09:00,
2013-10-01 02:14:00,61.6,56.4,30.05,SW,228,0.1,1.0,83,0.00,NA,NA,0.00,WeatherLink_script,2013-10-01 06:14:00,
2013-10-01 02:19:00,61.4,56.2,30.06,SW,228,0.0,0.0,83,0.00,NA,NA,0.00,WeatherLink_script,2013-10-01 06:19:00,
2013-10-01 02:24:00,61.2,56.0,30.06,SW,228,0.0,0.0,83,0.00,NA,NA,0.00,WeatherLink_script,2013-10-01 06:24:00,
2013-10-01 02:29:00,61.0,56.1,30.06,SW,228,0.0,0.0,84,0.00,NA,NA,0.00,WeatherLink_script,2013-10-01 06:29:00,
2013-10-01 02:34:00,60.8,55.9,30.05,SW,228,0.0,0.0,84,0.00,NA,NA,0.00,WeatherLink_script,2013-10-01 06:34:00,
2013-10-01 02:39:00,60.6,55.7,30.06,SW,228,0.0,0.0,84,0.00,NA,NA,0.00,WeatherLink_script,2013-10-01 06:39:00,
2013-10-01 02:44:00,60.5,55.6,30.05,SW,228,0.0,0.0,84,0.00,NA,NA,0.00,WeatherLink_script,2013-10-01 06:44:00,
2013-10-01 02:49:00,60.3,55.4,30.05,SW,228,0.0,0.0,84,0.00,NA,NA,0.00,WeatherLink_script,2013-10-01 06:49:00,
2013-10-01 02:54:00,60.1,55.3,30.05,SW,228,0.0,0.0,84,0.00,NA,NA,0.00,WeatherLink_script,2013-10-01 06:54:00,
2013-10-01 02:59:00,60.0,55.1,30.05,SW,228,0.0,0.0,84,0.00,NA,NA,0.00,WeatherLink_script,2013-10-01 06:59:00,
2013-10-01 03:05:00,59.8,55.3,30.05,SW,228,0.0,0.0,85,0.00,NA,NA,0.00,WeatherLink_script,2013-10-01 07:05:00,
2013-10-01 03:10:00,59.7,55.1,30.05,SW,228,0.0,0.0,85,0.00,NA,NA,0.00,WeatherLink_script,2013-10-01 07:10:00,
2013-10-01 03:15:00,59.5,55.0,30.05,SW,228,0.0,0.0,85,0.00,NA,NA,0.00,WeatherLink_script,2013-10-01 07:15:00,
2013-10-01 03:20:00,59.4,55.2,30.05,SW,228,0.0,0.0,86,0.00,NA,NA,0.00,WeatherLink_script,2013-10-01 07:20:00,
2013-10-01 03:25:00,59.4,55.2,30.05,SW,228,0.0,0.0,86,0.00,NA,NA,0.00,WeatherLink_script,2013-10-01 07:25:00,
2013-10-01 03:31:00,59.1,54.9,30.05,SW,228,0.0,0.0,86,0.00,NA,NA,0.00,WeatherLink_script,2013-10-01 07:31:00,
2013-10-01 03:36:00,59.1,54.9,30.05,SW,228,0.0,0.0,86,0.00,NA,NA,0.00,WeatherLink_script,2013-10-01 07:36:00,
2013-10-01 03:41:00,58.9,54.7,30.04,SW,228,0.0,0.0,86,0.00,NA,NA,0.00,WeatherLink_script,2013-10-01 07:41:00,
2013-10-01 03:46:00,58.8,54.9,30.04,SW,228,0.0,0.0,87,0.00,NA,NA,0.00,WeatherLink_script,2013-10-01 07:46:00,
2013-10-01 03:52:00,58.6,54.7,30.04,SW,228,0.0,0.0,87,0.00,NA,NA,0.00,WeatherLink_script,2013-10-01 07:52:00,
2013-10-01 03:58:00,58.6,54.7,30.04,SW,228,0.0,0.0,87,0.00,NA,NA,0.00,WeatherLink_script,2013-10-01 07:58:00,
2013-10-01 04:03:00,58.6,55.1,30.04,SW,228,0.0,0.0,88,0.00,NA,NA,0.00,WeatherLink_script,2013-10-01 08:03:00,
2013-10-01 04:08:00,58.6,55.1,30.05,SW,228,0.0,0.0,88,0.00,NA,NA,0.00,WeatherLink_script,2013-10-01 08:08:00,
2013-10-01 04:13:00,58.6,55.1,30.04,SW,228,0.0,0.0,88,0.00,NA,NA,0.00,WeatherLink_script,2013-10-01 08:13:00,
2013-10-01 04:18:00,58.8,54.9,30.04,SW,228,0.0,0.0,87,0.00,NA,NA,0.00,WeatherLink_script,2013-10-01 08:18:00,
2013-10-01 04:23:00,58.9,55.0,30.04,SW,228,0.0,0.0,87,0.00,NA,NA,0.00,WeatherLink_script,2013-10-01 08:23:00,
2013-10-01 04:28:00,58.9,55.0,30.05,SW,228,0.0,0.0,87,0.00,NA,NA,0.00,WeatherLink_script,2013-10-01 08:28:00,
2013-10-01 04:34:00,58.9,55.0,30.05,SW,228,0.0,0.0,87,0.00,NA,NA,0.00,WeatherLink_script,2013-10-01 08:34:00,
2013-10-01 04:39:00,58.9,54.7,30.05,SW,228,0.0,0.0,86,0.00,NA,NA,0.00,WeatherLink_script,2013-10-01 08:39:00,
2013-10-01 04:45:00,59.1,55.2,30.05,SW,228,0.0,0.0,87,0.00,NA,NA,0.00,WeatherLink_script,2013-10-01 08:45:00,
2013-10-01 04:50:00,59.2,55.3,30.05,SW,228,0.0,0.0,87,0.00,NA,NA,0.00,WeatherLink_script,2013-10-01 08:50:00,
2013-10-01 04:55:00,59.4,55.2,30.05,SW,228,0.0,0.0,86,0.00,NA,NA,0.00,WeatherLink_script,2013-10-01 08:55:00,
2013-10-01 05:00:00,59.4,55.2,30.05,SW,228,0.0,0.0,86,0.00,NA,NA,0.00,WeatherLink_script,2013-10-01 09:00:00,
2013-10-01 05:05:00,59.4,55.5,30.05,SW,228,0.0,0.0,87,0.00,NA,NA,0.00,WeatherLink_script,2013-10-01 09:05:00,
2013-10-01 05:11:00,59.5,55.6,30.05,SW,228,0.0,0.0,87,0.00,NA,NA,0.00,WeatherLink_script,2013-10-01 09:11:00,
2013-10-01 05:16:00,59.5,55.6,30.05,SW,228,0.0,0.0,87,0.00,NA,NA,0.00,WeatherLink_script,2013-10-01 09:16:00,
2013-10-01 05:21:00,59.7,55.8,30.05,SW,228,0.0,0.0,87,0.00,NA,NA,0.00,WeatherLink_script,2013-10-01 09:21:00,
2013-10-01 05:27:00,59.7,55.8,30.05,SW,228,0.0,0.0,87,0.00,NA,NA,0.00,WeatherLink_script,2013-10-01 09:27:00,
2013-10-01 05:33:00,59.7,56.1,30.05,SW,228,0.0,0.0,88,0.00,NA,NA,0.00,WeatherLink_script,2013-10-01 09:33:00,
2013-10-01 05:38:00,59.7,56.1,30.06,SW,228,0.0,0.0,88,0.00,NA,NA,0.00,WeatherLink_script,2013-10-01 09:38:00,
2013-10-01 05:43:00,59.5,55.9,30.06,SW,228,0.0,0.0,88,0.00,NA,NA,0.00,WeatherLink_script,2013-10-01 09:43:00,
2013-10-01 05:48:00,59.5,55.9,30.06,SW,228,0.0,0.0,88,0.00,NA,NA,0.00,WeatherLink_script,2013-10-01 09:48:00,
2013-10-01 05:53:00,59.5,55.9,30.06,SW,228,0.0,0.0,88,0.00,NA,NA,0.00,WeatherLink_script,2013-10-01 09:53:00,
2013-10-01 05:58:00,59.5,55.9,30.06,SW,228,0.0,0.0,88,0.00,NA,NA,0.00,WeatherLink_script,2013-10-01 09:58:00,
2013-10-01 06:03:00,59.7,55.8,30.06,SW,228,0.0,0.0,87,0.00,NA,NA,0.00,WeatherLink_script,2013-10-01 10:03:00,
2013-10-01 06:08:00,59.6,55.7,30.06,SW,228,0.0,0.0,87,0.00,NA,NA,0.00,WeatherLink_script,2013-10-01 10:08:00,
2013-10-01 06:13:00,59.7,55.8,30.06,SW,228,0.0,0.0,87,0.00,NA,NA,0.00,WeatherLink_script,2013-10-01 10:13:00,
2013-10-01 06:18:00,59.7,56.1,30.06,SW,228,0.0,0.0,88,0.00,NA,NA,0.00,WeatherLink_script,2013-10-01 10:18:00,
2013-10-01 06:23:00,59.7,56.1,30.06,SW,228,0.0,0.0,88,0.00,NA,NA,0.00,WeatherLink_script,2013-10-01 10:23:00,
2013-10-01 06:28:00,59.5,55.6,30.07,SW,228,0.0,0.0,87,0.00,NA,NA,0.00,WeatherLink_script,2013-10-01 10:28:00,
2013-10-01 06:34:00,59.5,55.6,30.07,SW,228,0.0,0.0,87,0.00,NA,NA,0.00,WeatherLink_script,2013-10-01 10:34:00,
2013-10-01 06:40:00,59.5,55.6,30.07,SW,228,0.0,0.0,87,0.00,NA,NA,0.00,WeatherLink_script,2013-10-01 10:40:00,
2013-10-01 06:46:00,59.7,55.8,30.07,SW,228,0.0,0.0,87,0.00,NA,NA,0.00,WeatherLink_script,2013-10-01 10:46:00,
2013-10-01 06:51:00,59.7,55.5,30.07,SW,228,0.0,0.0,86,0.00,NA,NA,0.00,WeatherLink_script,2013-10-01 10:51:00,
2013-10-01 06:56:00,59.7,55.5,30.07,SW,228,0.0,0.0,86,0.00,NA,NA,0.00,WeatherLink_script,2013-10-01 10:56:00,
2013-10-01 07:01:00,59.7,55.5,30.07,SW,228,0.1,1.0,86,0.00,NA,NA,0.00,WeatherLink_script,2013-10-01 11:01:00,
2013-10-01 07:07:00,59.7,55.5,30.07,SW,228,0.1,1.0,86,0.00,NA,NA,0.00,WeatherLink_script,2013-10-01 11:07:00,
2013-10-01 07:12:00,59.7,55.5,30.07,SW,228,0.0,0.0,86,0.00,NA,NA,0.00,WeatherLink_script,2013-10-01 11:12:00,
2013-10-01 07:17:00,59.7,55.5,30.07,SW,228,0.0,0.0,86,0.00,NA,NA,0.00,WeatherLink_script,2013-10-01 11:17:00,
2013-10-01 07:22:00,59.7,55.5,30.07,SW,228,0.0,0.0,86,0.00,NA,NA,0.00,WeatherLink_script,2013-10-01 11:22:00,
2013-10-01 07:27:00,59.7,55.5,30.07,SW,229,0.0,0.0,86,0.00,NA,NA,0.00,WeatherLink_script,2013-10-01 11:27:00,
2013-10-01 07:32:00,59.7,55.5,30.07,SW,228,0.0,0.0,86,0.00,NA,NA,0.00,WeatherLink_script,2013-10-01 11:32:00,
2013-10-01 07:38:00,59.9,55.7,30.08,SW,228,0.0,0.0,86,0.00,NA,NA,0.00,WeatherLink_script,2013-10-01 11:38:00,
2013-10-01 07:43:00,59.8,55.3,30.08,SW,228,0.0,0.0,85,0.00,NA,NA,0.00,WeatherLink_script,2013-10-01 11:43:00,
2013-10-01 07:49:00,60.1,55.6,30.08,SW,228,0.0,0.0,85,0.00,NA,NA,0.00,WeatherLink_script,2013-10-01 11:49:00,
2013-10-01 07:54:00,60.3,55.8,30.08,SW,228,0.0,0.0,85,0.00,NA,NA,0.00,WeatherLink_script,2013-10-01 11:54:00,
2013-10-01 07:59:00,60.5,56.0,30.08,SW,228,0.0,0.0,85,0.00,NA,NA,0.00,WeatherLink_script,2013-10-01 11:59:00,
2013-10-01 08:04:00,60.8,56.3,30.08,SW,228,0.0,0.0,85,0.00,NA,NA,0.00,WeatherLink_script,2013-10-01 12:04:00,
2013-10-01 08:10:00,61.0,56.5,30.08,NNE,32,0.0,0.0,85,0.00,NA,NA,0.00,WeatherLink_script,2013-10-01 12:10:00,
2013-10-01 08:15:00,61.4,56.8,30.08,NNE,32,0.0,0.0,85,0.00,NA,NA,0.00,WeatherLink_script,2013-10-01 12:15:00,
2013-10-01 08:20:00,61.6,57.0,30.08,NNE,32,0.0,0.0,85,0.00,NA,NA,0.00,WeatherLink_script,2013-10-01 12:20:00,
2013-10-01 08:26:00,61.8,57.2,30.08,NE,37,0.1,1.0,85,0.00,NA,NA,0.00,WeatherLink_script,2013-10-01 12:26:00,
2013-10-01 08:32:00,62.0,57.1,30.08,NNE,33,0.1,1.0,84,0.00,NA,NA,0.00,WeatherLink_script,2013-10-01 12:32:00,
2013-10-01 08:37:00,62.2,57.3,30.09,NNE,33,0.6,2.0,84,0.00,NA,NA,0.00,WeatherLink_script,2013-10-01 12:37:00,
2013-10-01 08:42:00,62.4,57.5,30.09,NNE,33,0.0,0.0,84,0.00,NA,NA,0.00,WeatherLink_script,2013-10-01 12:42:00,
2013-10-01 08:47:00,62.6,57.7,30.09,NNE,31,0.0,0.0,84,0.00,NA,NA,0.00,WeatherLink_script,2013-10-01 12:47:00,
2013-10-01 08:52:00,62.8,57.9,30.09,NE,55,0.0,0.0,84,0.00,NA,NA,0.00,WeatherLink_script,2013-10-01 12:52:00,
2013-10-01 08:57:00,63.1,58.2,30.09,NE,55,0.0,0.0,84,0.00,NA,NA,0.00,WeatherLink_script,2013-10-01 12:57:00,
2013-10-01 09:02:00,63.3,58.4,30.09,NE,55,0.0,0.0,84,0.00,NA,NA,0.00,WeatherLink_script,2013-10-01 13:02:00,
2013-10-01 09:08:00,63.4,58.2,30.09,NE,55,0.6,2.0,83,0.00,NA,NA,0.00,WeatherLink_script,2013-10-01 13:08:00,
2013-10-01 09:14:00,63.6,58.3,30.10,NNW,339,0.5,1.0,83,0.00,NA,NA,0.00,WeatherLink_script,2013-10-01 13:14:00,
2013-10-01 09:19:00,63.8,58.8,30.10,North,356,0.5,2.0,84,0.00,NA,NA,0.00,WeatherLink_script,2013-10-01 13:19:00,
2013-10-01 09:24:00,64.1,58.5,30.10,North,356,0.3,2.0,82,0.00,NA,NA,0.00,WeatherLink_script,2013-10-01 13:24:00,
2013-10-01 09:29:00,64.3,58.7,30.10,NNW,342,0.4,2.0,82,0.00,NA,NA,0.00,WeatherLink_script,2013-10-01 13:29:00,
2013-10-01 09:34:00,64.3,59.1,30.10,NNW,342,0.0,0.0,83,0.00,NA,NA,0.00,WeatherLink_script,2013-10-01 13:34:00,
2013-10-01 09:39:00,64.7,59.1,30.10,NNW,342,0.1,1.0,82,0.00,NA,NA,0.00,WeatherLink_script,2013-10-01 13:39:00,
2013-10-01 09:44:00,65.7,59.7,30.11,NNW,342,0.1,1.0,81,0.00,NA,NA,0.00,WeatherLink_script,2013-10-01 13:44:00,
2013-10-01 09:51:00,66.8,60.4,30.10,NNW,342,0.1,1.0,80,0.00,NA,NA,0.00,WeatherLink_script,2013-10-01 13:51:00,
2013-10-01 09:56:00,67.8,61.0,30.11,NNW,342,0.4,2.0,79,0.00,NA,NA,0.00,WeatherLink_script,2013-10-01 13:56:00,
2013-10-01 10:01:00,68.8,61.3,30.10,NNW,339,0.4,2.0,77,0.00,NA,NA,0.00,WeatherLink_script,2013-10-01 14:01:00,
2013-10-01 10:06:00,69.7,61.0,30.11,NW,317,0.2,1.0,74,0.00,NA,NA,0.00,WeatherLink_script,2013-10-01 14:06:00,
2013-10-01 10:12:00,70.3,60.8,30.10,NW,317,0.0,0.0,72,0.00,NA,NA,0.00,WeatherLink_script,2013-10-01 14:12:00,
2013-10-01 10:17:00,70.9,61.0,30.11,NW,317,0.4,2.0,71,0.00,NA,NA,0.00,WeatherLink_script,2013-10-01 14:17:00,
2013-10-01 10:22:00,71.4,61.5,30.11,NW,317,0.4,2.0,71,0.00,NA,NA,0.00,WeatherLink_script,2013-10-01 14:22:00,
2013-10-01 10:28:00,72.0,62.1,30.10,NW,317,0.7,2.0,71,0.00,NA,NA,0.00,WeatherLink_script,2013-10-01 14:28:00,
2013-10-01 10:33:00,72.7,61.9,30.11,NW,317,0.2,1.0,69,0.00,NA,NA,0.00,WeatherLink_script,2013-10-01 14:33:00,
2013-10-01 10:38:00,73.2,62.0,30.10,NW,317,0.5,3.0,68,0.00,NA,NA,0.00,WeatherLink_script,2013-10-01 14:38:00,
2013-10-01 10:43:00,74.1,62.4,30.11,NW,317,0.3,1.0,67,0.00,NA,NA,0.00,WeatherLink_script,2013-10-01 14:43:00,
2013-10-01 10:49:00,74.7,63.0,30.10,NW,317,0.6,2.0,67,0.00,NA,NA,0.00,WeatherLink_script,2013-10-01 14:49:00,
2013-10-01 10:54:00,74.9,62.3,30.10,NW,317,0.0,0.0,65,0.00,NA,NA,0.00,WeatherLink_script,2013-10-01 14:54:00,
2013-10-01 10:59:00,75.5,62.4,30.10,NW,316,0.4,1.0,64,0.00,NA,NA,0.00,WeatherLink_script,2013-10-01 14:59:00,
2013-10-01 11:05:00,75.9,62.9,30.10,NW,317,0.3,2.0,64,0.00,NA,NA,0.00,WeatherLink_script,2013-10-01 15:05:00,
2013-10-01 11:10:00,76.2,62.7,30.10,NW,319,1.3,3.0,63,0.00,NA,NA,0.00,WeatherLink_script,2013-10-01 15:10:00,
2013-10-01 11:15:00,76.5,62.0,30.10,NW,319,0.0,0.0,61,0.00,NA,NA,0.00,WeatherLink_script,2013-10-01 15:15:00,
2013-10-01 11:20:00,76.9,61.5,30.10,NW,319,0.7,2.0,59,0.00,NA,NA,0.00,WeatherLink_script,2013-10-01 15:20:00,
2013-10-01 11:25:00,77.1,60.7,30.10,NW,319,0.0,0.0,57,0.00,NA,NA,0.00,WeatherLink_script,2013-10-01 15:25:00,
2013-10-01 11:31:00,77.5,61.1,30.10,NW,319,0.4,1.0,57,0.00,NA,NA,0.00,WeatherLink_script,2013-10-01 15:31:00,
2013-10-01 11:36:00,77.9,62.4,30.10,NW,319,0.7,2.0,59,0.00,NA,NA,0.00,WeatherLink_script,2013-10-01 15:36:00,
2013-10-01 11:42:00,78.1,62.1,30.09,NW,319,1.4,3.0,58,0.00,NA,NA,0.00,WeatherLink_script,2013-10-01 15:42:00,
2013-10-01 11:48:00,78.4,60.4,30.09,NW,319,0.0,0.0,54,0.00,NA,NA,0.00,WeatherLink_script,2013-10-01 15:48:00,
2013-10-01 11:53:00,78.3,59.7,30.10,NW,319,2.3,3.0,53,0.00,NA,NA,0.00,WeatherLink_script,2013-10-01 15:53:00,
2013-10-01 11:58:00,78.1,60.6,30.09,NW,319,1.1,3.0,55,0.00,NA,NA,0.00,WeatherLink_script,2013-10-01 15:58:00,
2013-10-01 12:03:00,78.3,60.3,30.09,NW,319,0.6,2.0,54,0.00,NA,NA,0.00,WeatherLink_script,2013-10-01 16:03:00,
2013-10-01 12:08:00,78.5,62.0,30.09,NW,319,1.0,3.0,57,0.00,NA,NA,0.00,WeatherLink_script,2013-10-01 16:08:00,
2013-10-01 12:14:00,78.9,60.3,30.09,NW,318,2.0,3.0,53,0.00,NA,NA,0.00,WeatherLink_script,2013-10-01 16:14:00,
2013-10-01 12:19:00,79.4,61.8,30.09,NW,318,0.6,2.0,55,0.00,NA,NA,0.00,WeatherLink_script,2013-10-01 16:19:00,
2013-10-01 12:24:00,79.6,61.9,30.09,NW,319,0.1,1.0,55,0.00,NA,NA,0.00,WeatherLink_script,2013-10-01 16:24:00,
2013-10-01 12:29:00,79.6,60.9,30.08,NW,313,1.6,3.0,53,0.00,NA,NA,0.00,WeatherLink_script,2013-10-01 16:29:00,
2013-10-01 12:35:00,79.8,62.2,30.08,NW,312,1.3,3.0,55,0.00,NA,NA,0.00,WeatherLink_script,2013-10-01 16:35:00,
2013-10-01 12:37:00,80.0,61.3,30.08,NW,312,1.7,3.0,53,0.00,NA,NA,0.00,WeatherLink_script,2013-10-01 16:37:00,
2013-10-01 12:42:00,79.9,61.2,30.08,NW,313,0.9,3.0,53,0.00,NA,NA,0.00,WeatherLink_script,2013-10-01 16:42:00,
2013-10-01 12:47:00,80.2,61.0,30.08,WSW,254,0.3,1.0,52,0.00,NA,NA,0.00,WeatherLink_script,2013-10-01 16:47:00,
2013-10-01 12:53:00,80.3,60.5,30.08,WNW,285,1.9,3.0,51,0.00,NA,NA,0.00,WeatherLink_script,2013-10-01 16:53:00,
2013-10-01 12:59:00,80.3,60.5,30.07,WNW,297,1.0,4.0,51,0.00,NA,NA,0.00,WeatherLink_script,2013-10-01 16:59:00,
2013-10-01 13:04:00,80.5,61.7,30.07,WNW,285,0.4,2.0,53,0.00,NA,NA,0.00,WeatherLink_script,2013-10-01 17:04:00,
2013-10-01 13:09:00,80.4,61.7,30.07,WNW,285,0.2,1.0,53,0.00,NA,NA,0.00,WeatherLink_script,2013-10-01 17:09:00,
2013-10-01 13:14:00,80.6,60.2,30.07,SSE,164,1.0,3.0,50,0.00,NA,NA,0.00,WeatherLink_script,2013-10-01 17:14:00,
2013-10-01 13:19:00,80.7,59.7,30.07,SE,144,1.8,3.0,49,0.00,NA,NA,0.00,WeatherLink_script,2013-10-01 17:19:00,
2013-10-01 13:25:00,80.6,62.4,30.07,NW,310,0.9,2.0,54,0.00,NA,NA,0.00,WeatherLink_script,2013-10-01 17:25:00,
2013-10-01 13:30:00,80.3,61.1,30.07,NW,309,1.7,3.0,52,0.00,NA,NA,0.00,WeatherLink_script,2013-10-01 17:30:00,
2013-10-01 13:36:00,80.3,62.7,30.06,NW,309,0.8,2.0,55,0.00,NA,NA,0.00,WeatherLink_script,2013-10-01 17:36:00,
2013-10-01 13:42:00,80.6,61.3,30.06,NW,309,0.2,1.0,52,0.00,NA,NA,0.00,WeatherLink_script,2013-10-01 17:42:00,
2013-10-01 13:47:00,80.5,62.8,30.06,NW,309,0.5,2.0,55,0.00,NA,NA,0.00,WeatherLink_script,2013-10-01 17:47:00,
2013-10-01 13:52:00,80.5,60.7,30.05,NW,310,0.0,0.0,51,0.00,NA,NA,0.00,WeatherLink_script,2013-10-01 17:52:00,
2013-10-01 13:57:00,81.0,61.7,30.05,NW,309,0.1,1.0,52,0.00,NA,NA,0.00,WeatherLink_script,2013-10-01 17:57:00,
2013-10-01 14:02:00,81.5,60.5,30.05,NW,309,0.7,3.0,49,0.00,NA,NA,0.00,WeatherLink_script,2013-10-01 18:02:00,
2013-10-01 14:08:00,81.8,60.2,30.05,WNW,297,1.0,3.0,48,0.00,NA,NA,0.00,WeatherLink_script,2013-10-01 18:08:00,
2013-10-01 14:13:00,82.2,61.7,30.05,West,280,1.2,2.0,50,0.00,NA,NA,0.00,WeatherLink_script,2013-10-01 18:13:00,
2013-10-01 14:18:00,82.6,62.1,30.04,NW,314,0.4,2.0,50,0.00,NA,NA,0.00,WeatherLink_script,2013-10-01 18:18:00,
2013-10-01 14:23:00,83.2,60.2,30.04,NW,305,2.2,4.0,46,0.00,NA,NA,0.00,WeatherLink_script,2013-10-01 18:23:00,
2013-10-01 14:29:00,83.2,59.6,30.04,West,273,2.0,5.0,45,0.00,NA,NA,0.00,WeatherLink_script,2013-10-01 18:29:00,
2013-10-01 14:34:00,82.7,58.5,30.04,West,272,0.7,2.0,44,0.00,NA,NA,0.00,WeatherLink_script,2013-10-01 18:34:00,
2013-10-01 14:39:00,82.4,59.5,30.04,West,272,0.9,3.0,46,0.00,NA,NA,0.00,WeatherLink_script,2013-10-01 18:39:00,
2013-10-01 14:44:00,81.8,59.6,30.04,North,0,0.1,1.0,47,0.00,NA,NA,0.00,WeatherLink_script,2013-10-01 18:44:00,
2013-10-01 14:49:00,82.2,58.7,30.04,North,0,0.6,1.0,45,0.00,NA,NA,0.00,WeatherLink_script,2013-10-01 18:49:00,
2013-10-01 14:56:00,82.2,59.9,30.04,North,359,2.0,3.0,47,0.00,NA,NA,0.00,WeatherLink_script,2013-10-01 18:56:00,
2013-10-01 15:02:00,82.0,60.4,30.04,North,359,0.7,2.0,48,0.00,NA,NA,0.00,WeatherLink_script,2013-10-01 19:02:00,
2013-10-01 15:07:00,81.8,60.2,30.04,North,359,0.2,1.0,48,0.00,NA,NA,0.00,WeatherLink_script,2013-10-01 19:07:00,
2013-10-01 15:13:00,81.7,60.7,30.04,NW,308,1.2,3.0,49,0.00,NA,NA,0.00,WeatherLink_script,2013-10-01 19:13:00,
2013-10-01 15:19:00,81.4,60.9,30.04,NW,308,1.2,3.0,50,0.00,NA,NA,0.00,WeatherLink_script,2013-10-01 19:19:00,
2013-10-01 15:24:00,81.1,61.2,30.03,WNW,292,0.3,1.0,51,0.00,NA,NA,0.00,WeatherLink_script,2013-10-01 19:24:00,
2013-10-01 15:31:00,80.7,60.3,30.03,NW,324,0.8,3.0,50,0.00,NA,NA,0.00,WeatherLink_script,2013-10-01 19:31:00,
2013-10-01 15:37:00,80.6,59.7,30.03,NW,324,0.0,0.0,49,0.00,NA,NA,0.00,WeatherLink_script,2013-10-01 19:37:00,
2013-10-01 15:42:00,80.2,61.0,30.03,NW,324,0.9,2.0,52,0.00,NA,NA,0.00,WeatherLink_script,2013-10-01 19:42:00,
2013-10-01 15:48:00,79.8,61.1,30.03,NW,324,0.0,0.0,53,0.00,NA,NA,0.00,WeatherLink_script,2013-10-01 19:48:00,
2013-10-01 15:53:00,79.6,61.9,30.03,NW,324,0.4,1.0,55,0.00,NA,NA,0.00,WeatherLink_script,2013-10-01 19:53:00,
2013-10-01 15:58:00,79.4,60.7,30.03,NW,324,0.0,0.0,53,0.00,NA,NA,0.00,WeatherLink_script,2013-10-01 19:58:00,
2013-10-01 16:04:00,79.8,61.6,30.03,NW,324,0.1,1.0,54,0.00,NA,NA,0.00,WeatherLink_script,2013-10-01 20:04:00,
2013-10-01 16:09:00,80.2,59.9,30.03,NW,324,0.1,1.0,50,0.00,NA,NA,0.00,WeatherLink_script,2013-10-01 20:09:00,
2013-10-01 16:14:00,80.5,59.6,30.03,NW,324,0.1,1.0,49,0.00,NA,NA,0.00,WeatherLink_script,2013-10-01 20:14:00,
2013-10-01 16:19:00,80.9,61.0,30.03,NW,324,0.4,2.0,51,0.00,NA,NA,0.00,WeatherLink_script,2013-10-01 20:19:00,
2013-10-01 16:24:00,81.3,60.9,30.03,NW,324,0.0,0.0,50,0.00,NA,NA,0.00,WeatherLink_script,2013-10-01 20:24:00,
2013-10-01 16:29:00,81.4,61.0,30.02,NW,324,0.2,1.0,50,0.00,NA,NA,0.00,WeatherLink_script,2013-10-01 20:29:00,
2013-10-01 16:34:00,81.5,60.5,30.02,NW,324,0.3,1.0,49,0.00,NA,NA,0.00,WeatherLink_script,2013-10-01 20:34:00,
2013-10-01 16:39:00,81.4,60.4,30.02,NW,324,0.0,0.0,49,0.00,NA,NA,0.00,WeatherLink_script,2013-10-01 20:39:00,
2013-10-01 16:44:00,80.9,59.9,30.02,NW,324,0.0,0.0,49,0.00,NA,NA,0.00,WeatherLink_script,2013-10-01 20:44:00,
2013-10-01 16:50:00,80.1,58.6,30.02,WSW,240,0.1,1.0,48,0.00,NA,NA,0.00,WeatherLink_script,2013-10-01 20:50:00,
2013-10-01 16:56:00,79.4,59.7,30.03,WSW,240,0.0,0.0,51,0.00,NA,NA,0.00,WeatherLink_script,2013-10-01 20:56:00,
2013-10-01 17:01:00,79.1,61.0,30.03,WSW,239,0.0,0.0,54,0.00,NA,NA,0.00,WeatherLink_script,2013-10-01 21:01:00,
2013-10-01 17:06:00,78.9,60.8,30.02,WSW,240,0.0,0.0,54,0.00,NA,NA,0.00,WeatherLink_script,2013-10-01 21:06:00,
2013-10-01 17:11:00,79.1,60.5,30.02,WSW,240,0.0,0.0,53,0.00,NA,NA,0.00,WeatherLink_script,2013-10-01 21:11:00,
2013-10-01 17:16:00,79.1,59.4,30.02,WSW,240,0.2,1.0,51,0.00,NA,NA,0.00,WeatherLink_script,2013-10-01 21:16:00,
2013-10-01 17:22:00,78.7,59.6,30.02,WSW,239,0.0,0.0,52,0.00,NA,NA,0.00,WeatherLink_script,2013-10-01 21:22:00,
2013-10-01 17:27:00,78.5,59.4,30.03,WSW,239,0.0,0.0,52,0.00,NA,NA,0.00,WeatherLink_script,2013-10-01 21:27:00,
2013-10-01 17:32:00,78.5,61.0,30.02,WSW,240,0.0,0.0,55,0.00,NA,NA,0.00,WeatherLink_script,2013-10-01 21:32:00,
2013-10-01 17:37:00,78.1,61.1,30.02,WSW,239,0.0,0.0,56,0.00,NA,NA,0.00,WeatherLink_script,2013-10-01 21:37:00,
2013-10-01 17:42:00,78.0,60.5,30.03,WSW,239,0.0,0.0,55,0.00,NA,NA,0.00,WeatherLink_script,2013-10-01 21:42:00,
2013-10-01 17:48:00,77.3,59.3,30.03,WSW,239,0.0,0.0,54,0.00,NA,NA,0.00,WeatherLink_script,2013-10-01 21:48:00,
2013-10-01 17:53:00,76.7,60.3,30.03,WSW,239,0.0,0.0,57,0.00,NA,NA,0.00,WeatherLink_script,2013-10-01 21:53:00,
2013-10-01 17:58:00,76.4,60.5,30.03,WSW,239,0.0,0.0,58,0.00,NA,NA,0.00,WeatherLink_script,2013-10-01 21:58:00,
2013-10-01 18:03:00,75.8,60.4,30.02,WSW,239,0.0,0.0,59,0.00,NA,NA,0.00,WeatherLink_script,2013-10-01 22:03:00,
2013-10-01 18:08:00,75.4,60.5,30.03,WSW,239,0.0,0.0,60,0.00,NA,NA,0.00,WeatherLink_script,2013-10-01 22:08:00,
2013-10-01 18:14:00,74.9,60.5,30.02,WSW,240,0.0,0.0,61,0.00,NA,NA,0.00,WeatherLink_script,2013-10-01 22:14:00,
2013-10-01 18:19:00,74.4,61.0,30.03,WSW,239,0.0,0.0,63,0.00,NA,NA,0.00,WeatherLink_script,2013-10-01 22:19:00,
2013-10-01 18:25:00,73.9,61.4,30.02,WSW,239,0.0,0.0,65,0.00,NA,NA,0.00,WeatherLink_script,2013-10-01 22:25:00,
2013-10-01 18:30:00,73.7,62.0,30.02,WSW,240,0.0,0.0,67,0.00,NA,NA,0.00,WeatherLink_script,2013-10-01 22:30:00,
2013-10-01 18:35:00,73.3,60.8,30.03,WSW,240,0.0,0.0,65,0.00,NA,NA,0.00,WeatherLink_script,2013-10-01 22:35:00,
2013-10-01 18:41:00,72.9,60.4,30.02,WSW,239,0.0,0.0,65,0.00,NA,NA,0.00,WeatherLink_script,2013-10-01 22:41:00,
2013-10-01 18:46:00,72.5,60.5,30.03,WSW,239,0.0,0.0,66,0.00,NA,NA,0.00,WeatherLink_script,2013-10-01 22:46:00,
2013-10-01 18:52:00,72.2,61.0,30.03,WSW,239,0.0,0.0,68,0.00,NA,NA,0.00,WeatherLink_script,2013-10-01 22:52:00,
2013-10-01 18:57:00,72.0,60.4,30.03,WSW,240,0.1,1.0,67,0.00,NA,NA,0.00,WeatherLink_script,2013-10-01 22:57:00,
2013-10-01 19:02:00,71.6,60.4,30.03,WSW,239,0.0,0.0,68,0.00,NA,NA,0.00,WeatherLink_script,2013-10-01 23:02:00,
2013-10-01 19:07:00,71.4,60.7,30.02,WSW,240,0.0,0.0,69,0.00,NA,NA,0.00,WeatherLink_script,2013-10-01 23:07:00,
2013-10-01 19:12:00,71.0,60.7,30.03,WSW,240,0.0,0.0,70,0.00,NA,NA,0.00,WeatherLink_script,2013-10-01 23:12:00,
2013-10-01 19:17:00,70.8,60.5,30.03,WSW,239,0.0,0.0,70,0.00,NA,NA,0.00,WeatherLink_script,2013-10-01 23:17:00,
2013-10-01 19:22:00,70.7,60.8,30.03,WSW,239,0.0,0.0,71,0.00,NA,NA,0.00,WeatherLink_script,2013-10-01 23:22:00,
2013-10-01 19:25:00,70.5,60.2,30.03,WSW,239,0.0,0.0,70,0.00,NA,NA,0.00,WeatherLink_script,2013-10-01 23:25:00,
2013-10-01 19:30:00,70.2,60.0,30.03,WSW,239,0.0,0.0,70,0.00,NA,NA,0.00,WeatherLink_script,2013-10-01 23:30:00,
2013-10-01 19:33:00,70.1,60.2,30.03,WSW,240,0.0,0.0,71,0.00,NA,NA,0.00,WeatherLink_script,2013-10-01 23:33:00,
2013-10-01 19:38:00,70.0,60.2,30.03,WSW,239,0.0,0.0,71,0.00,NA,NA,0.00,WeatherLink_script,2013-10-01 23:38:00,
2013-10-01 19:43:00,69.8,60.0,30.03,WSW,239,0.2,1.0,71,0.00,NA,NA,0.00,WeatherLink_script,2013-10-01 23:43:00,
2013-10-01 19:48:00,69.7,59.8,30.03,WSW,239,0.0,0.0,71,0.00,NA,NA,0.00,WeatherLink_script,2013-10-01 23:48:00,
2013-10-01 19:53:00,69.6,60.5,30.04,WSW,239,0.0,0.0,73,0.00,NA,NA,0.00,WeatherLink_script,2013-10-01 23:53:00,
2013-10-01 19:58:00,69.3,60.6,30.04,WSW,239,0.0,0.0,74,0.00,NA,NA,0.00,WeatherLink_script,2013-10-01 23:58:00,
2013-10-01 20:03:00,69.0,60.7,30.04,WSW,239,0.0,0.0,75,0.00,NA,NA,0.00,WeatherLink_script,2013-10-02 00:03:00,
2013-10-01 20:08:00,68.8,60.5,30.04,WSW,239,0.0,0.0,75,0.00,NA,NA,0.00,WeatherLink_script,2013-10-02 00:08:00,
2013-10-01 20:13:00,68.3,60.5,30.04,WSW,239,0.0,0.0,76,0.00,NA,NA,0.00,WeatherLink_script,2013-10-02 00:13:00,
2013-10-01 20:18:00,68.2,60.4,30.05,WSW,239,0.0,0.0,76,0.00,NA,NA,0.00,WeatherLink_script,2013-10-02 00:18:00,
2013-10-01 20:21:00,68.2,60.0,30.04,WSW,239,0.0,0.0,75,0.00,NA,NA,0.00,WeatherLink_script,2013-10-02 00:21:00,
2013-10-01 20:26:00,68.3,59.7,30.04,WSW,240,0.1,1.0,74,0.00,NA,NA,0.00,WeatherLink_script,2013-10-02 00:26:00,
2013-10-01 20:31:00,68.6,60.0,30.05,WSW,241,0.0,0.0,74,0.00,NA,NA,0.00,WeatherLink_script,2013-10-02 00:31:00,
2013-10-01 20:36:00,68.7,60.1,30.05,WSW,240,0.0,0.0,74,0.00,NA,NA,0.00,WeatherLink_script,2013-10-02 00:36:00,
2013-10-01 20:41:00,68.5,60.3,30.05,WSW,241,0.0,0.0,75,0.00,NA,NA,0.00,WeatherLink_script,2013-10-02 00:41:00,
2013-10-01 20:46:00,68.3,60.0,30.05,WSW,240,0.0,0.0,75,0.00,NA,NA,0.00,WeatherLink_script,2013-10-02 00:46:00,
2013-10-01 20:51:00,68.2,60.0,30.05,WSW,240,0.0,0.0,75,0.00,NA,NA,0.00,WeatherLink_script,2013-10-02 00:51:00,
2013-10-01 20:56:00,68.0,60.5,30.05,WSW,241,0.0,0.0,77,0.00,NA,NA,0.00,WeatherLink_script,2013-10-02 00:56:00,
2013-10-01 21:01:00,67.8,60.7,30.05,WSW,241,0.0,0.0,78,0.00,NA,NA,0.00,WeatherLink_script,2013-10-02 01:01:00,
2013-10-01 21:06:00,67.7,60.6,30.05,WSW,241,0.0,0.0,78,0.00,NA,NA,0.00,WeatherLink_script,2013-10-02 01:06:00,
2013-10-01 21:11:00,67.5,60.4,30.05,WSW,241,0.0,0.0,78,0.00,NA,NA,0.00,WeatherLink_script,2013-10-02 01:11:00,
2013-10-01 21:16:00,67.4,59.9,30.05,WSW,240,0.0,0.0,77,0.00,NA,NA,0.00,WeatherLink_script,2013-10-02 01:16:00,
2013-10-01 21:21:00,67.4,59.2,30.05,WSW,241,0.0,0.0,75,0.00,NA,NA,0.00,WeatherLink_script,2013-10-02 01:21:00,
2013-10-01 21:26:00,67.4,59.6,30.05,WSW,240,0.0,0.0,76,0.00,NA,NA,0.00,WeatherLink_script,2013-10-02 01:26:00,
2013-10-01 21:31:00,67.4,59.9,30.05,WSW,240,0.0,0.0,77,0.00,NA,NA,0.00,WeatherLink_script,2013-10-02 01:31:00,
2013-10-01 21:36:00,67.4,60.3,30.05,WSW,241,0.0,0.0,78,0.00,NA,NA,0.00,WeatherLink_script,2013-10-02 01:36:00,
2013-10-01 21:41:00,67.3,60.2,30.05,WSW,241,0.0,0.0,78,0.00,NA,NA,0.00,WeatherLink_script,2013-10-02 01:41:00,
2013-10-01 21:46:00,67.4,60.3,30.06,WSW,240,0.0,0.0,78,0.00,NA,NA,0.00,WeatherLink_script,2013-10-02 01:46:00,
2013-10-01 21:51:00,67.1,60.4,30.06,WSW,241,0.0,0.0,79,0.00,NA,NA,0.00,WeatherLink_script,2013-10-02 01:51:00,
2013-10-01 21:56:00,67.0,60.6,30.05,WSW,241,0.2,1.0,80,0.00,NA,NA,0.00,WeatherLink_script,2013-10-02 01:56:00,
2013-10-01 22:01:00,66.9,60.9,30.06,WSW,241,0.0,0.0,81,0.00,NA,NA,0.00,WeatherLink_script,2013-10-02 02:01:00,
2013-10-01 22:06:00,66.7,61.0,30.06,WSW,241,0.1,1.0,82,0.00,NA,NA,0.00,WeatherLink_script,2013-10-02 02:06:00,
2013-10-01 22:11:00,66.5,60.8,30.06,WSW,240,1.0,2.0,82,0.00,NA,NA,0.00,WeatherLink_script,2013-10-02 02:11:00,
2013-10-01 22:16:00,66.3,61.0,30.06,WSW,241,0.0,0.0,83,0.00,NA,NA,0.00,WeatherLink_script,2013-10-02 02:16:00,
2013-10-01 22:21:00,66.1,61.1,30.06,WSW,241,0.0,0.0,84,0.00,NA,NA,0.00,WeatherLink_script,2013-10-02 02:21:00,
2013-10-01 22:26:00,65.9,60.9,30.06,WSW,242,0.3,1.0,84,0.00,NA,NA,0.00,WeatherLink_script,2013-10-02 02:26:00,
2013-10-01 22:31:00,65.7,61.1,30.06,WSW,242,0.0,0.0,85,0.00,NA,NA,0.00,WeatherLink_script,2013-10-02 02:31:00,
2013-10-01 22:36:00,65.5,60.9,30.06,WSW,242,0.0,0.0,85,0.00,NA,NA,0.00,WeatherLink_script,2013-10-02 02:36:00,
2013-10-01 22:41:00,65.4,60.8,30.07,WSW,242,0.3,1.0,85,0.00,NA,NA,0.00,WeatherLink_script,2013-10-02 02:41:00,
2013-10-01 22:46:00,65.2,60.6,30.07,WSW,242,0.0,0.0,85,0.00,NA,NA,0.00,WeatherLink_script,2013-10-02 02:46:00,
2013-10-01 22:51:00,65.1,60.1,30.07,WSW,242,0.0,0.0,84,0.00,NA,NA,0.00,WeatherLink_script,2013-10-02 02:51:00,
2013-10-01 22:56:00,64.9,59.6,30.06,WSW,242,0.9,3.0,83,0.00,NA,NA,0.00,WeatherLink_script,2013-10-02 02:56:00,
2013-10-01 23:01:00,64.9,59.6,30.06,WSW,242,0.1,1.0,83,0.00,NA,NA,0.00,WeatherLink_script,2013-10-02 03:01:00,
2013-10-01 23:06:00,64.9,59.3,30.07,WSW,242,0.0,0.0,82,0.00,NA,NA,0.00,WeatherLink_script,2013-10-02 03:06:00,
2013-10-01 23:11:00,64.8,59.1,30.07,WSW,242,0.0,0.0,82,0.00,NA,NA,0.00,WeatherLink_script,2013-10-02 03:11:00,
2013-10-01 23:16:00,64.8,59.2,30.07,WSW,242,0.0,0.0,82,0.00,NA,NA,0.00,WeatherLink_script,2013-10-02 03:16:00,
2013-10-01 23:21:00,64.7,59.1,30.07,WSW,242,0.1,1.0,82,0.00,NA,NA,0.00,WeatherLink_script,2013-10-02 03:21:00,
2013-10-01 23:26:00,64.6,58.6,30.07,WSW,242,0.1,1.0,81,0.00,NA,NA,0.00,WeatherLink_script,2013-10-02 03:26:00,
2013-10-01 23:31:00,64.6,58.3,30.07,WSW,242,0.0,0.0,80,0.00,NA,NA,0.00,WeatherLink_script,2013-10-02 03:31:00,
2013-10-01 23:36:00,64.6,58.3,30.07,WSW,242,0.0,0.0,80,0.00,NA,NA,0.00,WeatherLink_script,2013-10-02 03:36:00,
2013-10-01 23:41:00,64.6,57.9,30.07,WSW,242,0.0,0.0,79,0.00,NA,NA,0.00,WeatherLink_script,2013-10-02 03:41:00,
2013-10-01 23:46:00,64.4,57.8,30.07,WSW,242,0.0,0.0,79,0.00,NA,NA,0.00,WeatherLink_script,2013-10-02 03:46:00,
2013-10-01 23:51:00,64.5,57.5,30.07,WSW,242,0.3,3.0,78,0.00,NA,NA,0.00,WeatherLink_script,2013-10-02 03:51:00,
2013-10-01 23:56:00,64.6,57.6,30.07,WSW,242,0.0,0.0,78,0.00,NA,NA,0.00,WeatherLink_script,2013-10-02 03:56:00,